RYR55LM EBCI-EGNT

Flight info

Callsign RYR55LM
Flight time 1h 0m
Altitude 32000
Route CIV7X CIV UY50 LUMEN L610 NILON DCT WESUL M14 STOAT L613 MAMUL UY250 RIMTO RIMT2N
Aircraft B738/M-SDE2E3FGHIRWXY/LB1

Departure

Time 2026-04-28 14:39
Airport Brussels South Charleroi Airport (EBCI)

Arrival

Time 2026-04-28 15:39
Airport Newcastle International Airport (EGNT)
Time Latitude Longitude Altitude Speed Heading
2026-04-28 13:36 50.46806 4.46876 584 ft 0 kts 335°
2026-04-28 14:27 50.46791 4.46886 584 ft 4 kts 335°
2026-04-28 14:27 50.46771 4.46900 584 ft 4 kts 321°
2026-04-28 14:27 50.46760 4.46929 585 ft 5 kts 254°
2026-04-28 14:27 50.46770 4.46964 584 ft 3 kts 245°
2026-04-28 14:28 50.46771 4.46966 584 ft 2 kts 245°
2026-04-28 14:32 50.46762 4.46936 585 ft 7 kts 246°
2026-04-28 14:32 50.46737 4.46849 586 ft 9 kts 245°
2026-04-28 14:33 50.46696 4.46777 588 ft 9 kts 192°
2026-04-28 14:33 50.46627 4.46795 590 ft 11 kts 194°
2026-04-28 14:33 50.46572 4.46684 590 ft 16 kts 245°
2026-04-28 14:33 50.46525 4.46521 589 ft 16 kts 245°
2026-04-28 14:34 50.46434 4.46209 590 ft 15 kts 245°
2026-04-28 14:34 50.46391 4.46062 592 ft 14 kts 245°
2026-04-28 14:34 50.46350 4.45922 596 ft 14 kts 245°
2026-04-28 14:35 50.46311 4.45788 596 ft 13 kts 245°
2026-04-28 14:35 50.46274 4.45659 597 ft 13 kts 245°
2026-04-28 14:35 50.46238 4.45535 598 ft 13 kts 245°
2026-04-28 14:35 50.46196 4.45392 597 ft 16 kts 245°
2026-04-28 14:36 50.46149 4.45227 598 ft 16 kts 245°
2026-04-28 14:36 50.46102 4.45067 595 ft 16 kts 245°
2026-04-28 14:36 50.46056 4.44910 596 ft 15 kts 245°
2026-04-28 14:36 50.46012 4.44759 595 ft 15 kts 245°
2026-04-28 14:37 50.45971 4.44617 598 ft 14 kts 245°
2026-04-28 14:37 50.45929 4.44480 599 ft 14 kts 239°
2026-04-28 14:37 50.45875 4.44360 598 ft 15 kts 232°
2026-04-28 14:37 50.45795 4.44201 597 ft 20 kts 232°
2026-04-28 14:38 50.45705 4.44020 593 ft 21 kts 231°
2026-04-28 14:38 50.45645 4.44116 593 ft 20 kts 68°
2026-04-28 14:38 50.45653 4.44145 593 ft 0 kts 66°
2026-04-28 14:38 50.45656 4.44156 593 ft 11 kts 66°
2026-04-28 14:39 50.45794 4.44629 598 ft 83 kts 65°
2026-04-28 14:39 50.46125 4.45762 597 ft 143 kts 65°
2026-04-28 14:39 50.46552 4.47307 1120 ft 153 kts 64°
2026-04-28 14:39 50.47062 4.48787 1857 ft 164 kts 50°
2026-04-28 14:40 50.48073 4.49850 2431 ft 183 kts 28°
2026-04-28 14:40 50.48837 4.50442 2980 ft 179 kts 40°
2026-04-28 14:40 50.49730 4.52532 4002 ft 175 kts 60°
2026-04-28 14:40 50.50439 4.54054 4822 ft 178 kts 57°
2026-04-28 14:41 50.51234 4.55745 5030 ft 204 kts 58°
2026-04-28 14:41 50.52141 4.57657 5253 ft 230 kts 57°
2026-04-28 14:41 50.53231 4.59670 5517 ft 258 kts 41°
2026-04-28 14:41 50.54922 4.60843 6274 ft 274 kts 13°
2026-04-28 14:42 50.56851 4.60753 7137 ft 284 kts 348°
2026-04-28 14:42 50.58640 4.59338 7889 ft 298 kts 322°
2026-04-28 14:42 50.59923 4.56715 8624 ft 307 kts 292°
2026-04-28 14:42 50.60437 4.53517 9512 ft 306 kts 275°
2026-04-28 14:43 50.61067 4.50310 10262 ft 313 kts 302°
2026-04-28 14:43 50.62376 4.47460 10672 ft 332 kts 308°
2026-04-28 14:43 50.63844 4.44498 10872 ft 356 kts 308°
2026-04-28 14:43 50.65416 4.41271 11047 ft 380 kts 307°
2026-04-28 14:44 50.67032 4.37838 11213 ft 401 kts 306°
2026-04-28 14:44 50.68698 4.34180 11468 ft 416 kts 305°
2026-04-28 14:44 50.70351 4.30457 12043 ft 422 kts 304°
2026-04-28 14:44 50.72021 4.26628 12748 ft 424 kts 304°
2026-04-28 14:45 50.73683 4.22777 13496 ft 425 kts 304°
2026-04-28 14:45 50.75348 4.18894 14200 ft 426 kts 304°
2026-04-28 14:45 50.77013 4.15000 14791 ft 430 kts 303°
2026-04-28 14:45 50.78694 4.11060 15321 ft 434 kts 303°
2026-04-28 14:46 50.80392 4.07080 15896 ft 437 kts 303°
2026-04-28 14:46 50.82093 4.03085 16511 ft 438 kts 303°
2026-04-28 14:46 50.83796 3.99076 17142 ft 440 kts 303°
2026-04-28 14:46 50.85488 3.95089 17649 ft 444 kts 302°
2026-04-28 14:47 50.87238 3.90955 18161 ft 448 kts 302°
2026-04-28 14:47 50.88951 3.86910 18636 ft 451 kts 302°
2026-04-28 14:47 50.90712 3.82747 19087 ft 454 kts 302°
2026-04-28 14:47 50.92499 3.78516 19528 ft 457 kts 302°
2026-04-28 14:48 50.94251 3.74358 19941 ft 461 kts 303°
2026-04-28 14:48 50.96050 3.70089 20260 ft 467 kts 303°
2026-04-28 14:48 50.97834 3.65842 21049 ft 459 kts 303°
2026-04-28 14:48 50.99618 3.61588 21402 ft 465 kts 303°
2026-04-28 14:49 51.01428 3.57262 21512 ft 475 kts 303°
2026-04-28 14:49 51.03256 3.52895 21829 ft 479 kts 303°
2026-04-28 14:49 51.05112 3.48448 22296 ft 479 kts 303°
2026-04-28 14:49 51.06939 3.44061 23063 ft 473 kts 303°
2026-04-28 14:50 51.08761 3.39679 23441 ft 476 kts 303°
2026-04-28 14:50 51.10603 3.35240 23554 ft 484 kts 303°
2026-04-28 14:50 51.12441 3.30817 23933 ft 485 kts 303°
2026-04-28 14:50 51.14307 3.26309 24084 ft 491 kts 303°
2026-04-28 14:51 51.16198 3.21726 24230 ft 497 kts 303°
2026-04-28 14:51 51.18090 3.17130 24628 ft 495 kts 303°
2026-04-28 14:51 51.19986 3.12520 24914 ft 497 kts 303°
2026-04-28 14:51 51.21886 3.07895 25255 ft 497 kts 303°
2026-04-28 14:52 51.23771 3.03297 25669 ft 495 kts 303°
2026-04-28 14:52 51.25663 2.98675 25939 ft 497 kts 303°
2026-04-28 14:52 51.27563 2.94025 26027 ft 503 kts 303°
2026-04-28 14:52 51.29476 2.89337 26206 ft 504 kts 303°
2026-04-28 14:53 51.31361 2.84707 26489 ft 503 kts 304°
2026-04-28 14:53 51.33274 2.79979 26651 ft 507 kts 302°
2026-04-28 14:53 51.34911 2.74980 26805 ft 509 kts 293°
2026-04-28 14:53 51.36083 2.69623 27086 ft 509 kts 284°
2026-04-28 14:54 51.36788 2.64070 27433 ft 507 kts 280°
2026-04-28 14:54 51.37404 2.58509 27689 ft 508 kts 280°
2026-04-28 14:54 51.38026 2.52940 28099 ft 504 kts 280°
2026-04-28 14:54 51.38662 2.47444 28502 ft 502 kts 281°
2026-04-28 14:55 51.39314 2.41967 28785 ft 502 kts 281°
2026-04-28 14:55 51.39982 2.36445 28987 ft 505 kts 281°
2026-04-28 14:55 51.40653 2.30887 29088 ft 509 kts 281°
2026-04-28 14:55 51.41319 2.25321 29374 ft 508 kts 281°
2026-04-28 14:56 51.41977 2.19780 29766 ft 505 kts 281°
2026-04-28 14:56 51.42627 2.14266 30155 ft 503 kts 281°
2026-04-28 14:56 51.43277 2.08744 30420 ft 503 kts 281°
2026-04-28 14:56 51.43917 2.03294 30590 ft 505 kts 281°
2026-04-28 14:57 51.44568 1.97774 30845 ft 503 kts 281°
2026-04-28 14:57 51.45033 1.94058 31044 ft 502 kts 282°
2026-04-28 14:57 51.45967 1.86804 31385 ft 502 kts 282°
2026-04-28 14:58 51.47272 1.75730 31655 ft 506 kts 280°
2026-04-28 14:58 51.47886 1.70185 31943 ft 504 kts 280°
2026-04-28 14:58 51.48506 1.64659 32248 ft 502 kts 281°
2026-04-28 14:59 51.49752 1.53664 32278 ft 504 kts 281°
2026-04-28 14:59 51.50998 1.42606 32290 ft 502 kts 281°
2026-04-28 15:00 51.52233 1.31542 32286 ft 504 kts 281°
2026-04-28 15:00 51.53462 1.20433 32292 ft 505 kts 281°
2026-04-28 15:01 51.54677 1.09354 32292 ft 506 kts 281°
2026-04-28 15:01 51.55894 0.98207 32286 ft 506 kts 281°
2026-04-28 15:02 51.57103 0.87023 32253 ft 509 kts 281°
2026-04-28 15:02 51.58251 0.75743 32263 ft 512 kts 281°
2026-04-28 15:03 51.60106 0.64745 32269 ft 510 kts 296°
2026-04-28 15:03 51.63667 0.54981 32263 ft 503 kts 313°
2026-04-28 15:04 51.68282 0.46620 32277 ft 499 kts 322°
2026-04-28 15:04 51.73524 0.39241 32298 ft 496 kts 325°
2026-04-28 15:05 51.78742 0.32051 32286 ft 496 kts 324°
2026-04-28 15:05 51.83934 0.24725 32259 ft 495 kts 324°
2026-04-28 15:06 51.89092 0.17334 32279 ft 494 kts 324°
2026-04-28 15:06 51.94248 0.09930 32295 ft 494 kts 324°
2026-04-28 15:07 51.99352 0.02589 32296 ft 494 kts 324°
2026-04-28 15:07 52.03833 -0.03331 32309 ft 485 kts 335°
2026-04-28 15:08 52.09650 -0.08469 32310 ft 478 kts 341°
2026-04-28 15:08 52.15597 -0.13518 32322 ft 478 kts 341°
2026-04-28 15:09 52.21463 -0.18635 32326 ft 479 kts 340°
2026-04-28 15:09 52.27153 -0.23669 32330 ft 479 kts 340°
2026-04-28 15:10 52.33005 -0.28853 32336 ft 477 kts 341°
2026-04-28 15:10 52.38841 -0.34031 32341 ft 477 kts 341°
2026-04-28 15:11 52.44554 -0.39114 32346 ft 476 kts 341°
2026-04-28 15:11 52.50384 -0.44318 32347 ft 476 kts 341°
2026-04-28 15:12 52.56213 -0.49540 32343 ft 475 kts 341°
2026-04-28 15:12 52.61979 -0.54720 32341 ft 474 kts 341°
2026-04-28 15:13 52.67767 -0.59933 32342 ft 474 kts 341°
2026-04-28 15:13 52.73569 -0.65176 32376 ft 474 kts 341°
2026-04-28 15:14 52.79353 -0.70421 32361 ft 473 kts 340°
2026-04-28 15:14 52.85124 -0.75670 32368 ft 471 kts 340°
2026-04-28 15:15 52.90813 -0.80859 32377 ft 470 kts 340°
2026-04-28 15:15 52.96597 -0.86149 32385 ft 470 kts 340°
2026-04-28 15:16 53.02286 -0.91368 32356 ft 470 kts 340°
2026-04-28 15:16 53.07996 -0.96615 32402 ft 468 kts 340°
2026-04-28 15:17 53.13712 -1.01879 32403 ft 468 kts 340°
2026-04-28 15:17 53.19372 -1.07110 32421 ft 467 kts 340°
2026-04-28 15:18 53.25059 -1.12382 32379 ft 467 kts 339°
2026-04-28 15:18 53.30729 -1.17657 32420 ft 466 kts 339°
2026-04-28 15:19 53.36393 -1.22938 32420 ft 465 kts 339°
2026-04-28 15:19 53.42199 -1.27400 32428 ft 450 kts 352°
2026-04-28 15:20 53.48266 -1.28943 32440 ft 436 kts
2026-04-28 15:20 53.54188 -1.29536 32435 ft 437 kts
2026-04-28 15:21 53.60214 -1.31939 32435 ft 455 kts 347°
2026-04-28 15:21 53.63106 -1.34271 32428 ft 466 kts 338°
2026-04-28 15:21 53.65915 -1.37146 32436 ft 468 kts 336°
2026-04-28 15:22 53.71421 -1.42918 32434 ft 468 kts 337°
2026-04-28 15:22 53.76997 -1.48614 32427 ft 467 kts 336°
2026-04-28 15:22 53.79779 -1.51452 32104 ft 464 kts 336°
2026-04-28 15:23 53.82555 -1.54286 31316 ft 463 kts 336°
2026-04-28 15:23 53.85279 -1.57073 30552 ft 463 kts 336°
2026-04-28 15:23 53.88042 -1.59905 29643 ft 464 kts 336°
2026-04-28 15:23 53.90799 -1.62740 28772 ft 464 kts 336°
2026-04-28 15:24 53.93452 -1.65473 27893 ft 464 kts 335°
2026-04-28 15:24 53.96215 -1.68322 26963 ft 465 kts 335°
2026-04-28 15:24 53.98984 -1.71182 26089 ft 464 kts 335°
2026-04-28 15:24 54.01730 -1.74027 25472 ft 458 kts 335°
2026-04-28 15:25 54.04441 -1.76834 24790 ft 454 kts 335°
2026-04-28 15:25 54.07128 -1.79613 24125 ft 450 kts 334°
2026-04-28 15:25 54.09771 -1.82346 23347 ft 450 kts 334°
2026-04-28 15:25 54.12515 -1.84860 22604 ft 441 kts 346°
2026-04-28 15:26 54.15452 -1.85902 22009 ft 426 kts
2026-04-28 15:26 54.18368 -1.85596 21360 ft 416 kts 14°
2026-04-28 15:26 54.21199 -1.84674 20737 ft 412 kts 15°
2026-04-28 15:26 54.24013 -1.83717 20094 ft 410 kts 15°
2026-04-28 15:27 54.26807 -1.82780 19495 ft 408 kts 14°
2026-04-28 15:27 54.29587 -1.81874 18897 ft 405 kts 14°
2026-04-28 15:27 54.32347 -1.80994 18229 ft 402 kts 14°
2026-04-28 15:27 54.35090 -1.80129 17576 ft 398 kts 14°
2026-04-28 15:28 54.37802 -1.79276 16974 ft 394 kts 14°
2026-04-28 15:28 54.40491 -1.78427 16363 ft 391 kts 14°
2026-04-28 15:28 54.43142 -1.77588 15556 ft 393 kts 14°
2026-04-28 15:28 54.45814 -1.76742 15134 ft 386 kts 14°
2026-04-28 15:29 54.48392 -1.75930 15004 ft 369 kts 14°
2026-04-28 15:29 54.50865 -1.75148 14894 ft 353 kts 14°
2026-04-28 15:29 54.53234 -1.74398 14798 ft 338 kts 14°
2026-04-28 15:29 54.55506 -1.73675 14719 ft 325 kts 14°
2026-04-28 15:30 54.57697 -1.72977 14634 ft 313 kts 14°
2026-04-28 15:30 54.59802 -1.72305 14560 ft 301 kts 14°
2026-04-28 15:30 54.61832 -1.71656 14487 ft 291 kts 14°
2026-04-28 15:30 54.63786 -1.71031 14419 ft 280 kts 14°
2026-04-28 15:31 54.65651 -1.70435 14329 ft 272 kts 15°
2026-04-28 15:31 54.67482 -1.69850 14196 ft 264 kts 15°
2026-04-28 15:31 54.69300 -1.69347 13438 ft 276 kts
2026-04-28 15:31 54.71367 -1.70142 11607 ft 335 kts 340°
2026-04-28 15:32 54.73572 -1.72078 9865 ft 374 kts 335°
2026-04-28 15:32 54.75108 -1.73514 9207 ft 381 kts 334°
2026-04-28 15:32 54.78168 -1.76407 8024 ft 367 kts 334°
2026-04-28 15:32 54.80447 -1.78529 6556 ft 379 kts 334°
2026-04-28 15:33 54.82729 -1.80636 5562 ft 367 kts 334°
2026-04-28 15:33 54.84969 -1.82689 4445 ft 348 kts 335°
2026-04-28 15:33 54.87036 -1.84581 2880 ft 327 kts 334°
2026-04-28 15:33 54.88909 -1.86290 2520 ft 278 kts 335°
2026-04-28 15:34 54.90489 -1.87735 2339 ft 237 kts 335°
2026-04-28 15:34 54.91834 -1.88965 2293 ft 198 kts 336°
2026-04-28 15:34 54.92967 -1.90000 2280 ft 179 kts 336°
2026-04-28 15:34 54.94074 -1.91008 2282 ft 178 kts 337°
2026-04-28 15:35 54.95170 -1.92006 2281 ft 176 kts 338°
2026-04-28 15:35 54.97303 -1.91534 2295 ft 164 kts 50°
2026-04-28 15:35 54.97990 -1.89964 2290 ft 162 kts 57°
2026-04-28 15:36 54.98563 -1.88356 2253 ft 150 kts 59°
2026-04-28 15:36 54.99058 -1.86811 2303 ft 146 kts 63°
2026-04-28 15:36 54.99509 -1.85191 2177 ft 151 kts 65°
2026-04-28 15:36 54.99954 -1.83514 1976 ft 149 kts 65°
2026-04-28 15:37 55.00367 -1.81946 1784 ft 134 kts 65°
2026-04-28 15:37 55.00744 -1.80522 1603 ft 127 kts 64°
2026-04-28 15:37 55.01101 -1.79166 1419 ft 123 kts 65°
2026-04-28 15:37 55.01342 -1.78248 1319 ft 125 kts 65°
2026-04-28 15:38 55.01811 -1.76450 1101 ft 122 kts 64°
2026-04-28 15:38 55.02189 -1.75071 1009 ft 130 kts 64°
2026-04-28 15:38 55.02568 -1.73641 819 ft 129 kts 66°
2026-04-28 15:38 55.02932 -1.72222 561 ft 128 kts 66°
2026-04-28 15:39 55.03312 -1.70793 331 ft 131 kts 66°
2026-04-28 15:39 55.03673 -1.69432 256 ft 113 kts 65°
2026-04-28 15:39 55.03953 -1.68375 247 ft 59 kts 65°
2026-04-28 15:39 55.04065 -1.67952 246 ft 24 kts 65°
2026-04-28 15:40 55.04132 -1.67696 245 ft 23 kts 63°
2026-04-28 15:40 55.04157 -1.67607 244 ft 0 kts 65°
2026-04-28 15:41 55.03656 -1.70712 266 ft 0 kts